NOAA 16 DEB, 42388

Orbit data source: Space-Track

NOAA 16 DEB, 42388 is space debris in SSO originally from a launch on Thu, 21 Sep 2000 UTC launched from the Air Force Western Test Range (AFWTR). Debris objects in space refer to the collection of defunct objects orbiting the Earth. Examples of debris include non-operational satellites, rocket bodies, and fragments generated from explosions, collisions, or faulty payload assembly.

Loading next visibility...
Identifier
42388, 2000-055SG
Orbit
SSO
Country
Flag of USUS
Related business
Manufacturer
Unknown
Mission
Spacecraft
Bus & Motor
Unknown
Mass
Unknown
Launch date (UTC)
2000-09-21 (26 years ago)
Launch vehicle
Unknown
Launch site
Air Force Western Test Range (AFWTR)
Object type
Payload
Rocket body
Debris
Shape & HBR
Unknown shape, 0.1 m
Radar Cross Section
Small (<0.1 m²)

Expand to show TLE details & history
Last TLE update: 1 day ago

TLE from 1 day ago
0 NOAA 16 DEB
1 42388U 00055SG  26127.56937275  .00002930  00000-0  11289-2 0  9994
2 42388  98.5977 167.7126 0016854  64.9131 295.3799 14.30971735528379
Epoch: 2026-05-07T13:39Z
TLE epoch observation values (Epoch: 2026-05-07T13:39:53.805Z)
Latitude
-0.00002°
Longitude
97.32479°
Altitude
786.256 km
Speed
7.463 km/s
True Right ascension
11h 10m 51s
True Declination
0° 00' 00"
Sunlit
Object was in full shadow at epoch
Visualization orbit readout
Latitude
Unknown
Longitude
Unknown
Altitude
Unknown
Speed
Unknown
Apparent Right ascension
Unknown
Apparent Declination
Unknown
Sunlit
N/A
Visualization observer readout
Local Sidereal Time
02:14:44
Azimuth
Unknown
Elevation
Unknown
Doppler factor
Unknown
Orbital elements
Apogee altitude
797.697 km
Perigee altitude
773.549 km
Semi-major axis
7,163.76 km
Eccentricity
0.00169
Inclination
98.5977°
RAAN
167.7126°
Arg. of periapsis
64.9131°
True anomaly
295.20525°
Mean anomaly
295.3799°
Eccentric anomaly
295.29259°
Mean motion
3.57958 °/min
Orbital period
100.57 mins
BSTAR
0.0011289
Loading maneuver chart data...
Computing Atmospheric mass density...
Loading historical data...
Loading historical data...
Loading historical data...
Loading historical data...
Loading historical data...
Loading historical data...
Loading historical data...

Documentation

Showing up to 5 results
|